Location: Mahannah Oil Field
(37.4664°N, 96.6003°W)
Time: 01:29:25
(UTC+00:00)

A-11 Canister half - Pass Details

Date: 28 January 2021
Orbit: 1524 x 1684 km, 47.3° (Epoch: 25 February)

Event Time Altitude Azimuth Distance (km) Brightness Sun altitude
Rises 23:00:39 0° 286° (WNW) 4,691 12.3 7.4°
Reaches altitude 10° 23:03:52 10° 293° (WNW) 3,721 11.7 6.8°
Maximum altitude 23:12:53 47° 6° (N) 1,986 9.5 5.2°
Drops below altitude 10° 23:22:11 10° 78° (ENE) 3,832 10.5 3.6°
Sets 23:25:32 0° 84° (E) 4,840 11.0 3.0°
